User: anonymous   Login
Location: Unspecified
(0.0000°N, 0.0000°E)
Time: 09:28:42
(UTC+00:00)
Language:

FALCONSAT 3 - Orbit

View from above orbital plane
View from above orbital plane
View from above satellite
View from above satellite

Ground track
Ground track

The orbit data is extracted from the following two-line orbital elements,

1 30776U 07006E   17327.54821069 +.00003938 +00000-0 +12029-3 0  9991
2 30776 035.4346 134.8371 0003717 320.1399 039.9054 15.33456743592728
Epoch (UTC): 23 November 2017 13:09:25
Eccentricity: 0.0003717
inclination: 35.4346°
perigee height: 463 km
apogee height: 468 km
right ascension of ascending node: 134.8371°
argument of perigee: 320.1399°
revolutions per day: 15.33456743
mean anomaly at epoch: 39.9054°
orbit number at epoch: 59272

The dashed part of the orbit path shows where the satellite is in the earth's shadow,  

DLR